Regional Weather Roundup
Issued by NWS Little Rock, AR

Home | Current Version | Previous Version | Text Only | Print | Product List | Glossary On
Versions: 1 2 3 4 5 6 7 8 9 10 11 12 13 14 15 16 17 18 19 20 21 22 23 24 25 26 27 28 29 30 31 32 33 34 35 36 37 38 39 40 41 42 43 44 45 46 47 48 49 50
000
ASUS44 KLZK 211805
RWRLZK

WEATHER ROUNDUP FOR ARKANSAS
NATIONAL WEATHER SERVICE LITTLE ROCK AR
1200 PM CST SUN DEC 21 2014

NOTE: "FAIR" INDICATES FEW OR NO CLOUDS BELOW 12,000 FEET WITH NO
SIGNIFICANT WEATHER AND/OR OBSTRUCTIONS TO VISIBILITY.

ARZ001-003-010-029-211900-
NORTHWEST ARKANSAS

CITY           SKY/WX    TMP DP  RH WIND       PRES   REMARKS
FAYETTEVILLE   CLOUDY    43  38  82 S13       30.04F
6HR MIN TEMP:  41; 6HR MAX TEMP:  43;

FORT SMITH     CLOUDY    46  37  71 SE9       30.06F
6HR MIN TEMP:  44; 6HR MAX TEMP:  47;

HARRISON       CLOUDY    41  36  82 S12       30.06F
6HR MIN TEMP:  38; 6HR MAX TEMP:  41;

BENTONVILLE    CLOUDY    45  37  76 S8        30.03F
6HR MIN TEMP:  43; 6HR MAX TEMP:  45;

ROGERS         CLOUDY    43  39  86 S13       30.03F
6HR MIN TEMP:  41; 6HR MAX TEMP:  44; 6HR PCP: TRACE;

SILOAM SPGS    CLOUDY    45  36  70 S13       30.03F
6HR MIN TEMP:  41; 6HR MAX TEMP:  45;

HIGHFILL       CLOUDY    45  40  82 S12       30.02F
6HR MIN TEMP:  42; 6HR MAX TEMP:  45;

SPRINGDALE     CLOUDY    43  39  87 SE9       30.05F
$$

ARZ004-005-016-211900-
NORTH CENTRAL ARKANSAS

CITY           SKY/WX    TMP DP  RH WIND       PRES   REMARKS
BATESVILLE     CLOUDY    48  34  57 CALM      30.13F
6HR MIN TEMP:  39; 6HR MAX TEMP:  50;

FLIPPIN        CLOUDY    43  34  70 E5        30.09F
6HR MIN TEMP:  39; 6HR MAX TEMP:  43;

MTN HOME       CLOUDY    40  34  79 SE7       30.08F
6HR MIN TEMP:  38; 6HR MAX TEMP:  40;

$$

ARZ040-041-211900-
WEST CENTRAL ARKANSAS

CITY           SKY/WX    TMP DP  RH WIND       PRES   REMARKS
MENA           CLOUDY    52  39  62 E6        30.05F
MOUNT IDA      CLOUDY    49  38  65 VRB3      30.06F
6HR MIN TEMP:  37; 6HR MAX TEMP:  49;

$$

ARZ009-017-025-026-028-211900-
NORTHEAST ARKANSAS

CITY           SKY/WX    TMP DP  RH WIND       PRES   REMARKS
CORNING        FAIR      43  32  65 SE6       30.16F
JONESBORO      CLOUDY    43  36  76 NE5       30.14F
6HR MIN TEMP:  34; 6HR MAX TEMP:  43;

NEWPORT        MOSUNNY   48  35  60 E3        30.14F
6HR MIN TEMP:  38; 6HR MAX TEMP:  48;

WALNUT RIDGE   CLOUDY    43  30  61 E5        30.14F
6HR MIN TEMP:  37; 6HR MAX TEMP:  43;

BLYTHEVILLE    MOSUNNY   47  35  63 CALM      30.16F
6HR MIN TEMP:  29; 6HR MAX TEMP:  47;

$$

ARZ022-023-033-042-044-211900-
CENTRAL ARKANSAS

CITY           SKY/WX    TMP DP  RH WIND       PRES   REMARKS
LITTLE ROCK    MOSUNNY   51  35  54 SE10      30.11F
6HR MIN TEMP:  33; 6HR MAX TEMP:  51;

N LITTLE ROCK  MOSUNNY   50  38  63 SE9       30.11F
6HR MIN TEMP:  34; 6HR MAX TEMP:  51;

JACKSONVILLE   MOSUNNY   51  36  55 SE8       30.10
6HR MIN TEMP:  28; 6HR MAX TEMP:  51;

SEARCY         SUNNY     51  37  58 SE8       30.14F
6HR MIN TEMP:  33; 6HR MAX TEMP:  51;

HOT SPRINGS    CLOUDY    50  38  63 VRB6      30.10F
6HR MIN TEMP:  32; 6HR MAX TEMP:  50; 6HR PCP: TRACE;

RUSSELLVILLE   CLOUDY    44  35  70 VRB5      30.10F
6HR MIN TEMP:  40; 6HR MAX TEMP:  45;

CLINTON        CLOUDY    46  36  66 CALM      30.12F
$$

ARZ036-211900-
EAST ARKANSAS

CITY           SKY/WX    TMP DP  RH WIND       PRES   REMARKS
WEST MEMPHIS   MOSUNNY   51  34  52 SE7       30.13F
6HR MIN TEMP:  31; 6HR MAX TEMP:  51;

$$

ARZ050-053-066-070-073-211900-
SOUTHWEST ARKANSAS

CITY           SKY/WX    TMP DP  RH WIND       PRES   REMARKS
ARKADELPHIA    MOCLDY    53  43  69 SE5       30.12F
6HR MIN TEMP:  31; 6HR MAX TEMP:  53;

CAMDEN         SUNNY     55  37  50 MISG      30.12F
TEXARKANA      CLOUDY    47  40  76 VRB3      30.10F
6HR MIN TEMP:  36; 6HR MAX TEMP:  47;

EL DORADO      SUNNY     54  39  57 SE6       30.10F
6HR MIN TEMP:  31; 6HR MAX TEMP:  54;

DE QUEEN       CLOUDY    48  40  73 SE7       30.07F
6HR MIN TEMP:  42; 6HR MAX TEMP:  48;

$$

ARZ056-057-069-211900-
SOUTHEAST ARKANSAS

CITY           SKY/WX    TMP DP  RH WIND       PRES   REMARKS
PINE BLUFF     SUNNY     51  36  56 E6        30.12F
6HR MIN TEMP:  30; 6HR MAX TEMP:  51;

STUTTGART      SUNNY     50  36  57 SE5       30.14F
6HR MIN TEMP:  34; 6HR MAX TEMP:  50;

MONTICELLO     SUNNY     54  35  48 VRB6      30.12F
6HR MIN TEMP:  31; 6HR MAX TEMP:  54;


$$




USA.gov is the U.S. government's official web portal to all federal, state and local government web resources and services.